Regional Weather Roundup
Issued by NWS

Home | Current Version | Previous Version | Graphics & Text | Print | Product List | Glossary On
Versions: 1 2 3 4 5 6 7 8 9 10 11 12 13 14 15 16 17 18 19 20 21 22 23 24 25 26 27 28 29 30 31 32 33 34 35 36 37 38 39 40 41 42 43 44 45 46 47 48 49
000
ASUS45 KCYS 160610
RWRWY

WYOMING REGIONAL WEATHER ROUNDUP
NATIONAL WEATHER SERVICE CHEYENNE WY
1200 AM MDT TUE SEP 16 2014

NOTE:  "FAIR" INDICATES FEW OR NO CLOUDS BELOW 12,000 FEET
WITH NO SIGNIFICANT WEATHER AND/OR OBSTRUCTIONS TO VISIBILITY.

WYZ001-160700-
YELLOWSTONE NATIONAL PARK

CITY           SKY/WX    TMP DP  RH WIND       PRES   REMARKS
LK YELLOWSTONE   N/A     37  29  72 CALM      30.36R
6HR MIN TEMP:  37; 6HR MAX TEMP:  66;

W YELLOWSTONE  NOT AVBL

$$
WYZ002>013-054>058-071-098>099-160700-
NORTHERN WYOMING

CITY           SKY/WX    TMP DP  RH WIND       PRES   REMARKS
JACKSON        CLEAR     43  30  61 N8        30.27R
CODY           CLEAR     55  43  62 SW8       30.16S
GREYBULL       CLEAR     55  44  66 CALM      30.09R
6HR MIN TEMP:  54; 6HR MAX TEMP:  78;

WORLAND        CLEAR     52  45  77 S5        30.11R
6HR MIN TEMP:  52; 6HR MAX TEMP:  78;

SHERIDAN       CLEAR     48  42  80 SE3       30.10S
6HR MIN TEMP:  46; 6HR MAX TEMP:  74;

BUFFALO        CLEAR     54  36  50 W7        30.14F
6HR MIN TEMP:  52; 6HR MAX TEMP:  72;

GILLETTE       CLEAR     56  44  64 S9        30.11S
6HR MIN TEMP:  53; 6HR MAX TEMP:  71;

HULETT         FAIR      55  41  58 MISG      30.11
NEWCASTLE      FAIR      59  41  51 E8        30.12

$$
WYZ014>020-022>026-101>103-160700-
CENTRAL WYOMING

CITY           SKY/WX    TMP DP  RH WIND       PRES   REMARKS
BIG PINEY      CLEAR     41  29  62 SW6       30.32R
6HR MIN TEMP:  41; 6HR MAX TEMP:  76;

PINEDALE       CLEAR     41  32  70 W3        30.32S
DUBOIS         FAIR      48  28  46 NW13      30.29S
LANDER         CLEAR     57  35  43 S6        30.18R
6HR MIN TEMP:  56; 6HR MAX TEMP:  76;

RIVERTON       CLEAR     60  39  45 N7        30.18R
6HR MIN TEMP:  57; 6HR MAX TEMP:  76;

CASPER         PTCLDY    49  38  65 NW8       30.16R
6HR MIN TEMP:  47; 6HR MAX TEMP:  82;

DOUGLAS        PTCLDY    53  43  68 W3        30.13S
6HR MIN TEMP:  53; 6HR MAX TEMP:  73;


$$
WYZ021-027>030-104>119-160700-
SOUTHERN WYOMING

CITY           SKY/WX    TMP DP  RH WIND       PRES   REMARKS
EVANSTON       CLEAR     58  32  37 SE9       30.32R
6HR MIN TEMP:  57; 6HR MAX TEMP:  76;

KEMMERER       CLEAR     54  30  40 N9        30.33R
FORT BRIDGER   FAIR      56  31  38 SW9       30.34R
ROCK SPRINGS   PTCLDY    60  34  37 S5        30.29R
6HR MIN TEMP:  60; 6HR MAX TEMP:  76;

DIXON          FAIR      48  40  74 CALM      30.31S
RAWLINS        CLEAR     61  33  35 SW12      30.26S
6HR MIN TEMP:  61; 6HR MAX TEMP:  74; 6HR PCP: TRACE;

SARATOGA       MOCLDY    52  36  54 SE7       30.30S
LARAMIE        CLEAR     46  40  79 S9        30.30S
6HR MIN TEMP:  46; 6HR MAX TEMP:  65;

CHEYENNE       PTCLDY    51  46  83 SW8       30.24F
6HR MIN TEMP:  51; 6HR MAX TEMP:  65;

TORRINGTON     MOCLDY    55  49  80 SE14      30.12F
6HR MIN TEMP:  55; 6HR MAX TEMP:  71;

PINE BLUFFS    FAIR      50  46  87 CALM      30.21F

$$



USA.gov is the U.S. government's official web portal to all federal, state and local government web resources and services.